Wind_Speed
16 15 14 13 12 10 9 8 7 6 5 5 3 3 2 1 3 4 6 7 8 9 10 11 12 13 14 15 16 17 18 19 20 20 20 20 20 20 20 19 19 19
17 16 14 12 11 10 9 8 7 6 5 5 4 2 1 1 3 4 6 7 8 9 10 11 12 13 14 15 16 17 18 19 19 20 20 19 19 19 19 19 18 19
18 16 14 12 11 10 10 9 8 7 6 5 4 2 1 2 3 4 6 7 8 9 9 10 11 12 14 15 16 17 18 18 18 18 18 18 17 17 16 16 16 17
19 17 15 13 12 11 10 10 9 8 6 5 4 3 3 3 5 5 6 7 8 8 9 10 12 13 14 16 17 18 18 18 17 16 16 16 15 15 14 14 15 15
19 17 16 14 13 13 11 11 9 8 7 5 4 5 5 6 6 7 8 8 8 9 10 11 13 14 15 16 17 18 18 17 16 15 15 15 14 14 14 14 15 16
20 19 17 16 15 13 12 11 10 8 7 7 7 7 7 8 8 8 8 8 8 10 11 12 13 15 16 17 17 17 17 16 16 15 15 15 14 15 15 15 16 16
21 20 18 17 16 14 13 12 10 10 9 9 9 9 9 9 9 8 8 8 9 10 11 13 14 15 16 17 17 17 17 16 16 15 15 15 15 15 15 16 16 17
22 21 19 18 17 15 14 13 12 11 11 11 11 11 10 9 9 8 8 8 9 10 12 13 14 16 17 18 18 17 17 16 16 16 15 15 15 16 16 16 17 18
23 22 21 19 18 16 15 14 13 13 13 13 12 11 10 9 9 8 8 9 10 11 12 13 15 16 17 18 18 18 17 17 16 16 16 16 16 16 16 17 18 18
24 23 22 20 19 18 16 16 15 14 14 14 13 12 11 10 9 9 9 10 11 12 13 14 16 17 18 18 18 18 17 17 16 16 16 16 16 16 17 17 18 19
26 24 23 22 20 19 18 17 16 16 16 14 13 12 12 11 10 10 10 11 12 13 14 15 17 17 18 18 18 18 17 17 16 16 16 16 16 17 17 18 18 19
27 26 24 23 22 21 19 19 18 17 17 15 14 13 13 12 12 11 12 12 13 14 15 16 17 18 18 18 18 18 18 18 17 17 17 16 17 17 17 18 18 18
28 26 25 24 23 22 21 20 20 19 17 16 15 14 14 13 13 13 13 13 13 14 15 16 17 18 18 18 19 18 18 18 18 17 17 17 17 17 17 18 18 18
28 27 26 25 24 23 22 22 21 20 19 17 16 16 15 15 15 15 14 14 14 14 15 16 17 18 18 19 19 19 18 18 18 18 18 17 17 18 18 18 18 18
29 27 27 27 26 25 24 24 23 21 20 19 18 17 16 16 16 16 15 14 14 14 15 16 17 18 18 19 19 19 19 19 19 18 18 18 18 18 18 18 18 18
30 29 29 29 28 27 26 26 24 23 21 20 19 18 18 18 17 16 15 15 14 15 15 17 17 18 18 19 19 19 19 19 19 19 18 18 18 18 18 18 18 18
31 31 31 31 30 29 28 27 26 24 23 21 20 19 20 19 18 17 16 16 15 15 16 17 17 18 18 19 20 20 20 20 20 20 19 19 19 19 19 18 19 19
33 33 33 33 31 30 30 28 27 26 24 23 22 21 21 21 19 18 17 17 17 17 17 17 17 18 19 20 20 20 21 22 21 21 20 20 19 19 19 20 20 20
35 35 35 34 33 32 30 29 28 28 26 25 24 23 23 22 20 19 19 19 18 18 18 18 18 18 19 20 21 21 22 23 23 22 22 21 21 21 21 21 21 22
37 37 36 36 34 32 31 31 30 29 28 26 26 26 25 23 21 21 20 20 20 20 20 19 18 19 20 21 22 22 23 24 24 24 23 23 23 22 22 23 23 23
38 38 38 37 35 33 32 32 32 31 30 29 29 27 26 24 23 22 22 22 22 22 21 20 19 20 21 22 22 23 24 24 25 25 25 24 24 24 24 24 24 24
40 40 39 38 36 34 33 33 33 33 32 32 31 29 27 26 25 24 24 24 24 24 23 21 20 21 22 23 23 24 25 25 25 26 26 26 26 26 26 26 25 25
41 41 39 38 36 34 34 34 34 34 34 33 32 31 29 28 26 25 25 26 27 26 25 22 21 22 24 24 24 24 25 26 26 26 27 27 27 27 27 27 27 26
41 40 39 37 35 34 34 34 34 34 34 33 33 32 31 29 27 27 28 29 29 27 26 24 23 24 25 25 24 25 26 26 27 27 28 28 28 28 28 28 28 27
38 38 37 35 34 33 33 33 33 33 33 33 33 33 32 30 29 29 30 31 30 28 27 26 25 25 26 26 25 25 26 27 28 29 29 29 29 30 30 29 28 28
35 35 34 33 32 32 31 32 32 31 32 32 32 32 32 31 30 31 32 32 30 29 29 28 27 27 27 27 26 26 26 27 29 30 30 30 30 30 31 30 29 28
Wind_Direction
169 168 163 159 155 150 145 144 144 142 138 138 133 123 111 43 9 356 350 349 347 347 347 346 346 346 345 345 343 342 341 340 340 339 338 336 335 334 334 334 335 335
174 170 167 164 161 156 153 152 153 153 151 150 149 148 140 350 343 339 336 336 336 334 334 334 333 334 334 335 335 336 336 336 335 334 332 331 330 330 330 331 332 332
178 175 172 170 167 164 162 163 165 165 164 164 168 180 233 300 308 312 314 315 317 317 320 322 324 327 330 332 333 334 334 333 332 331 329 329 329 329 329 329 329 329
181 180 178 175 174 173 172 172 173 174 177 182 188 210 247 266 276 285 290 295 301 307 314 321 326 331 333 334 334 334 333 332 332 331 330 330 330 329 329 328 327 328
185 185 183 182 182 181 181 180 182 185 188 199 212 228 243 251 260 270 278 286 296 309 319 327 331 333 334 334 334 333 333 333 333 332 331 331 329 327 327 326 326 327
190 190 189 189 189 188 189 189 192 197 202 214 224 232 239 246 255 265 276 289 304 318 326 330 331 333 334 334 333 333 332 331 331 330 329 328 326 325 324 324 325 328
195 194 194 195 195 194 196 198 203 208 214 222 227 233 240 247 258 269 282 298 312 321 324 327 329 331 333 333 332 331 330 328 327 326 325 324 323 322 322 323 326 328
200 199 199 200 199 200 203 207 212 216 220 226 229 235 242 250 261 273 287 301 311 316 319 323 327 330 332 332 331 329 328 326 323 322 321 320 320 320 321 323 325 327
203 204 204 204 203 206 210 214 217 221 224 228 232 237 244 253 263 274 285 296 304 309 315 321 326 329 330 330 330 328 326 323 320 319 318 318 319 319 320 321 323 325
207 207 207 207 208 212 216 219 221 224 226 229 233 239 246 254 261 271 281 291 299 306 315 322 326 329 330 329 328 325 322 320 319 319 318 318 318 317 318 319 320 322
210 210 210 211 214 217 220 222 224 226 228 231 235 240 247 253 260 269 278 287 297 306 317 323 326 328 328 327 326 323 322 320 319 319 317 317 317 316 316 316 316 319
212 213 214 216 219 221 223 225 226 228 230 232 235 241 247 253 259 268 277 286 297 307 316 321 325 326 325 325 325 323 322 321 320 319 317 315 314 313 312 312 313 316
215 216 218 221 223 224 225 227 228 229 231 232 237 242 247 253 260 268 277 286 297 306 314 320 323 322 322 324 324 323 322 321 320 318 316 315 313 311 309 309 310 312
218 219 222 225 225 225 226 229 229 229 231 233 238 243 248 254 261 268 276 285 295 305 312 317 318 318 321 324 324 323 322 321 319 317 315 313 310 308 305 305 306 308
220 222 225 227 226 226 227 229 229 229 231 234 238 243 248 254 261 267 274 282 292 301 308 312 313 316 321 324 324 323 320 318 317 314 312 310 307 304 301 301 302 304
223 225 228 229 228 227 229 230 230 230 231 235 239 243 248 254 260 265 272 279 287 296 301 305 309 314 320 323 321 319 316 315 313 311 309 307 303 301 298 297 299 300
226 228 230 231 230 229 230 230 231 231 232 236 239 243 248 254 259 264 270 277 282 288 294 298 305 311 317 319 317 315 313 312 311 309 308 305 302 299 297 295 296 298
229 231 232 233 232 231 231 231 232 232 233 236 239 244 249 253 259 264 269 273 276 282 288 294 301 306 311 314 314 313 311 310 310 310 307 304 301 298 296 295 295 296
232 233 235 235 233 232 231 231 233 233 235 238 240 244 248 252 258 264 267 269 272 276 282 289 296 300 304 309 310 311 311 310 311 310 308 305 302 299 298 296 296 297
235 236 236 237 235 233 232 233 235 235 236 238 240 242 247 252 259 264 266 268 270 273 278 283 289 294 299 304 307 309 310 310 311 310 308 305 304 302 300 297 297 298
238 238 237 237 235 234 234 236 237 237 238 239 240 242 247 253 259 264 266 268 269 270 273 278 283 289 294 300 304 307 308 309 310 310 308 306 305 303 301 299 299 300
240 240 239 239 237 236 237 238 239 239 240 241 241 243 248 253 258 264 268 269 269 268 269 273 279 285 290 296 300 304 306 307 309 309 308 306 304 303 301 299 298 299
243 243 242 242 240 238 239 240 241 241 242 242 243 246 250 255 260 265 268 268 267 266 267 270 275 281 287 292 296 300 303 305 307 308 307 305 303 301 300 299 298 298
246 246 246 245 243 241 242 243 243 244 244 245 247 250 253 257 262 265 266 267 266 264 265 268 272 278 284 288 293 297 300 303 305 306 306 304 302 300 299 298 298 299
249 249 248 247 245 244 244 245 246 247 248 249 250 252 255 258 261 263 265 265 264 263 264 267 270 275 281 285 289 293 297 300 303 304 305 304 301 299 298 298 298 299
248 249 249 248 247 246 246 248 249 249 250 251 252 253 255 258 260 262 264 264 263 263 263 266 270 273 278 283 286 290 294 298 300 302 303 302 300 298 297 298 299 300
Height
1557 1558 1559 1560 1561 1562 1563 1565 1566 1568 1569 1570 1571 1572 1572 1573 1573 1574 1574 1575 1575 1576 1575 1575 1575 1575 1575 1575 1575 1575 1575 1574 1574 1573 1573 1572 1571 1571 1570 1570 1569 1569
1556 1557 1558 1559 1560 1561 1563 1564 1566 1567 1568 1569 1570 1570 1571 1572 1572 1573 1574 1574 1574 1574 1574 1574 1574 1574 1574 1574 1574 1574 1574 1573 1573 1572 1571 1571 1570 1570 1569 1568 1568 1567
1555 1556 1557 1558 1559 1560 1562 1564 1565 1566 1567 1567 1568 1569 1570 1571 1571 1572 1573 1573 1573 1573 1573 1573 1573 1573 1573 1573 1573 1573 1573 1572 1571 1570 1570 1569 1569 1568 1568 1567 1567 1566
1553 1555 1556 1557 1558 1560 1561 1562 1564 1564 1565 1566 1567 1568 1569 1570 1571 1571 1572 1572 1572 1572 1572 1572 1572 1572 1572 1572 1572 1571 1571 1570 1569 1569 1568 1567 1567 1567 1566 1566 1565 1565
1552 1553 1555 1556 1557 1558 1560 1561 1562 1563 1564 1565 1566 1567 1568 1569 1570 1570 1570 1570 1570 1570 1570 1570 1570 1570 1570 1570 1570 1569 1569 1568 1567 1567 1566 1566 1565 1565 1565 1564 1564 1564
1551 1552 1553 1554 1555 1557 1558 1559 1560 1561 1562 1563 1564 1566 1567 1568 1568 1569 1569 1569 1568 1568 1568 1568 1569 1569 1569 1568 1568 1567 1567 1566 1566 1565 1565 1564 1564 1563 1563 1563 1562 1562
1549 1550 1551 1553 1554 1555 1557 1558 1559 1559 1561 1562 1563 1565 1566 1566 1567 1567 1567 1566 1566 1567 1567 1567 1567 1567 1567 1566 1566 1565 1565 1565 1564 1563 1563 1563 1562 1562 1561 1561 1560 1559
1547 1548 1549 1551 1552 1554 1555 1556 1557 1558 1559 1561 1562 1563 1564 1564 1565 1565 1565 1565 1565 1566 1566 1566 1566 1565 1565 1565 1564 1564 1563 1563 1562 1562 1562 1561 1561 1560 1559 1559 1558 1557
1545 1546 1547 1549 1550 1552 1553 1554 1555 1556 1558 1559 1560 1561 1562 1562 1563 1563 1563 1564 1564 1564 1564 1564 1564 1563 1563 1563 1562 1562 1561 1561 1561 1560 1560 1559 1558 1558 1557 1556 1555 1555
1543 1544 1545 1547 1548 1550 1551 1552 1553 1555 1556 1557 1558 1559 1559 1560 1561 1561 1562 1562 1563 1563 1563 1562 1562 1561 1561 1560 1560 1560 1560 1559 1559 1558 1557 1556 1556 1555 1554 1554 1553 1552
1540 1542 1543 1545 1546 1548 1549 1550 1551 1553 1554 1555 1556 1556 1557 1558 1559 1560 1560 1561 1561 1561 1560 1560 1559 1559 1559 1558 1558 1558 1557 1557 1556 1555 1555 1554 1553 1553 1552 1551 1551 1550
1538 1539 1541 1542 1544 1545 1547 1548 1550 1551 1552 1552 1553 1554 1555 1556 1557 1558 1558 1558 1558 1558 1558 1558 1557 1557 1557 1556 1556 1555 1555 1554 1553 1553 1552 1551 1551 1550 1549 1549 1548 1547
1536 1537 1538 1540 1542 1543 1545 1546 1547 1548 1549 1550 1551 1551 1553 1554 1555 1556 1556 1556 1556 1556 1556 1555 1555 1555 1554 1554 1554 1553 1552 1552 1551 1550 1549 1549 1548 1548 1547 1546 1546 1545
1534 1535 1536 1538 1539 1541 1543 1544 1545 1546 1546 1547 1548 1549 1550 1552 1553 1553 1553 1553 1553 1553 1553 1553 1553 1553 1552 1552 1551 1550 1550 1549 1548 1547 1547 1546 1546 1545 1545 1544 1543 1542
1531 1532 1533 1535 1537 1538 1540 1541 1542 1543 1544 1545 1546 1547 1548 1549 1550 1550 1551 1551 1551 1551 1551 1550 1550 1550 1550 1549 1549 1548 1547 1546 1545 1545 1544 1543 1543 1542 1542 1541 1541 1540
1528 1529 1530 1532 1534 1536 1537 1538 1539 1540 1541 1542 1543 1544 1546 1547 1547 1548 1548 1548 1548 1548 1548 1548 1548 1548 1547 1547 1546 1545 1544 1544 1543 1542 1541 1541 1540 1540 1539 1538 1538 1537
1525 1526 1527 1529 1531 1533 1534 1535 1537 1538 1539 1539 1540 1542 1543 1544 1544 1545 1545 1546 1546 1545 1546 1546 1545 1545 1544 1544 1543 1543 1542 1541 1540 1539 1538 1538 1537 1537 1536 1535 1535 1534
1522 1523 1525 1527 1528 1530 1531 1533 1534 1535 1536 1536 1537 1539 1540 1540 1541 1542 1542 1543 1543 1543 1543 1543 1542 1542 1542 1541 1541 1540 1539 1537 1537 1536 1535 1535 1534 1533 1533 1532 1531 1530
1519 1520 1522 1524 1525 1527 1529 1530 1531 1532 1533 1534 1535 1536 1537 1537 1538 1539 1539 1540 1540 1540 1540 1540 1539 1539 1539 1539 1538 1537 1536 1534 1533 1533 1532 1531 1530 1530 1529 1528 1528 1527
1515 1516 1518 1520 1522 1524 1525 1526 1528 1529 1530 1531 1532 1533 1533 1534 1535 1536 1536 1537 1536 1537 1537 1537 1537 1536 1536 1536 1535 1534 1533 1531 1530 1529 1528 1528 1527 1526 1526 1525 1524 1524
1511 1513 1515 1517 1519 1521 1522 1523 1524 1525 1527 1528 1528 1529 1531 1531 1532 1532 1533 1533 1533 1533 1534 1533 1533 1533 1533 1532 1532 1531 1529 1528 1527 1526 1525 1524 1524 1523 1522 1522 1521 1520
1507 1509 1512 1514 1516 1518 1518 1520 1521 1522 1523 1524 1525 1526 1527 1528 1529 1529 1530 1530 1530 1530 1530 1530 1530 1529 1529 1529 1528 1527 1526 1525 1524 1523 1522 1521 1520 1519 1519 1518 1518 1517
1504 1506 1508 1510 1512 1514 1515 1516 1517 1518 1519 1521 1522 1523 1524 1525 1525 1526 1526 1526 1526 1526 1526 1527 1527 1526 1526 1526 1525 1524 1523 1521 1520 1519 1518 1518 1517 1516 1515 1515 1514 1513
1501 1503 1505 1507 1508 1510 1511 1512 1513 1515 1516 1517 1519 1520 1520 1521 1522 1522 1522 1523 1523 1523 1523 1523 1523 1523 1522 1522 1522 1521 1519 1518 1517 1516 1515 1514 1513 1512 1512 1511 1510 1510
1498 1500 1501 1503 1505 1506 1508 1509 1510 1512 1513 1514 1515 1516 1517 1517 1518 1518 1518 1519 1519 1519 1519 1519 1519 1519 1519 1518 1518 1517 1516 1514 1513 1512 1511 1511 1510 1508 1508 1507 1506 1506
1495 1496 1498 1500 1501 1503 1505 1506 1507 1509 1510 1510 1511 1512 1513 1513 1513 1514 1514 1514 1515 1515 1515 1515 1515 1515 1515 1515 1514 1514 1512 1511 1510 1509 1508 1507 1506 1505 1504 1503 1502 1502